Location: Newark
(41.6478°N, 9.0078°E)
Time: 14:15:56
(UTC+00:00)

UWE-3 - Pass Details

Date: 03 February 2020
Orbit: 586 x 682 km, 97.6° (Epoch: 28 February)

Event Time Altitude Azimuth Distance (km) Brightness Sun altitude
Rises 03:32:07 0° 38° (NE) 2,935 ? -34.3°
Reaches altitude 10° 03:36:31 10° 79° (E) 2,048 ? -33.5°
Maximum altitude 03:37:16 10° 89° (E) 2,028 ? -33.4°
Drops below altitude 10° 03:38:00 10° 99° (E) 2,055 ? -33.2°
Sets 03:42:27 0° 140° (SE) 2,986 ? -32.4°
